owner,sensor,date,latitude,longitude,vertical_datum,wind_speed,wind_to_direction,wind_speed_of_gust,qcFlag 
WAVCIS,ioos:station:WAVCIS:CSI16:1,2009-08-01T00:00:00Z,29.4012,-89.0355,10.0,3.283,294.0,,'11111222,11111222,99999999' 
WAVCIS,ioos:station:WAVCIS:CSI16:1,2009-08-01T01:00:00Z,29.4012,-89.0355,10.0,1.474,296.0,,'11111222,11111222,99999999' 
WAVCIS,ioos:station:WAVCIS:CSI16:1,2009-08-01T02:00:00Z,29.4012,-89.0355,10.0,2.276,171.0,,'11111222,11111222,99999999' 
WAVCIS,ioos:station:WAVCIS:CSI16:1,2009-08-01T03:00:00Z,29.4012,-89.0355,10.0,1.913,175.0,,'11111222,11111222,99999999' 
WAVCIS,ioos:station:WAVCIS:CSI16:1,2009-08-01T04:00:00Z,29.4012,-89.0355,10.0,3.405,177.0,,'11111222,11111222,99999999' 
WAVCIS,ioos:station:WAVCIS:CSI16:1,2009-08-01T05:00:00Z,29.4012,-89.0355,10.0,4.154,200.0,,'11111222,11111222,99999999' 
WAVCIS,ioos:station:WAVCIS:CSI16:1,2009-08-01T06:00:00Z,29.4012,-89.0355,10.0,4.672,197.0,,'11111222,11111222,99999999' 
WAVCIS,ioos:station:WAVCIS:CSI16:1,2009-08-01T07:00:00Z,29.4012,-89.0355,10.0,4.964,212.0,,'11111222,11111222,99999999' 
WAVCIS,ioos:station:WAVCIS:CSI16:1,2009-08-01T08:00:00Z,29.4012,-89.0355,10.0,4.488,210.0,,'11111222,11111222,99999999' 
WAVCIS,ioos:station:WAVCIS:CSI16:1,2009-08-01T09:00:00Z,29.4012,-89.0355,10.0,3.918,223.0,,'11111222,11111222,99999999' 
WAVCIS,ioos:station:WAVCIS:CSI16:1,2009-08-01T10:00:00Z,29.4012,-89.0355,10.0,2.817,227.0,,'11111222,11111222,99999999' 
WAVCIS,ioos:station:WAVCIS:CSI16:1,2009-08-01T11:00:00Z,29.4012,-89.0355,10.0,3.809,212.0,,'11111222,11111222,99999999' 
WAVCIS,ioos:station:WAVCIS:CSI16:1,2009-08-01T12:00:00Z,29.4012,-89.0355,10.0,2.205,214.0,,'11111222,11111222,99999999' 
WAVCIS,ioos:station:WAVCIS:CSI16:1,2009-08-01T13:00:00Z,29.4012,-89.0355,10.0,2.075,235.0,,'11111222,11111222,99999999' 
WAVCIS,ioos:station:WAVCIS:CSI16:1,2009-08-01T14:00:00Z,29.4012,-89.0355,10.0,1.558,228.0,,'11111222,11111222,99999999' 
WAVCIS,ioos:station:WAVCIS:CSI16:1,2009-08-01T15:00:00Z,29.4012,-89.0355,10.0,0.516,193.0,,'11111222,11111222,99999999' 
WAVCIS,ioos:station:WAVCIS:CSI16:1,2009-08-01T16:00:00Z,29.4012,-89.0355,10.0,2.223,216.0,,'11111222,11111222,99999999' 
WAVCIS,ioos:station:WAVCIS:CSI16:1,2009-08-01T17:00:00Z,29.4012,-89.0355,10.0,1.32,217.0,,'11111222,11111222,99999999' 
WAVCIS,ioos:station:WAVCIS:CSI16:1,2009-08-01T18:00:00Z,29.4012,-89.0355,10.0,1.322,203.0,,'11111222,11111222,99999999' 
WAVCIS,ioos:station:WAVCIS:CSI16:1,2009-08-01T19:00:00Z,29.4012,-89.0355,10.0,5.034,254.0,,'11111222,11111222,99999999' 
WAVCIS,ioos:station:WAVCIS:CSI16:1,2009-08-01T20:00:00Z,29.4012,-89.0355,10.0,5.341,246.0,,'11111222,11111222,99999999' 
WAVCIS,ioos:station:WAVCIS:CSI16:1,2009-08-01T21:00:00Z,29.4012,-89.0355,10.0,6.182,258.0,,'11111222,11111222,99999999' 
WAVCIS,ioos:station:WAVCIS:CSI16:1,2009-08-01T22:00:00Z,29.4012,-89.0355,10.0,6.179,244.0,,'11111222,11111222,99999999' 
WAVCIS,ioos:station:WAVCIS:CSI16:1,2009-08-01T23:00:00Z,29.4012,-89.0355,10.0,5.151,251.0,,'11111222,11111222,99999999' 
WAVCIS,ioos:station:WAVCIS:CSI16:1,2009-08-02T00:00:00Z,29.4012,-89.0355,10.0,5.307,228.0,,'11111222,11111222,99999999' 
WAVCIS,ioos:station:WAVCIS:CSI16:1,2009-08-02T01:00:00Z,29.4012,-89.0355,10.0,6.17,227.0,,'11111222,11111222,99999999' 
WAVCIS,ioos:station:WAVCIS:CSI16:1,2009-08-02T02:00:00Z,29.4012,-89.0355,10.0,5.019,223.0,,'11111222,11111222,99999999' 
WAVCIS,ioos:station:WAVCIS:CSI16:1,2009-08-02T03:00:00Z,29.4012,-89.0355,10.0,5.453,215.0,,'11111222,11111222,99999999' 
WAVCIS,ioos:station:WAVCIS:CSI16:1,2009-08-02T04:00:00Z,29.4012,-89.0355,10.0,4.493,214.0,,'11111222,11111222,99999999' 
WAVCIS,ioos:station:WAVCIS:CSI16:1,2009-08-02T05:00:00Z,29.4012,-89.0355,10.0,4.918,217.0,,'11111222,11111222,99999999' 
WAVCIS,ioos:station:WAVCIS:CSI16:1,2009-08-03T03:00:00Z,29.4012,-89.0355,10.0,1.663,212.0,,'11111222,11111222,99999999' 
WAVCIS,ioos:station:WAVCIS:CSI16:1,2009-08-03T04:00:00Z,29.4012,-89.0355,10.0,1.46,210.0,,'11111222,11111222,99999999' 
WAVCIS,ioos:station:WAVCIS:CSI16:1,2009-08-03T05:00:00Z,29.4012,-89.0355,10.0,2.796,203.0,,'11111222,11111222,99999999' 
WAVCIS,ioos:station:WAVCIS:CSI16:1,2009-08-03T13:00:00Z,29.4012,-89.0355,10.0,2.621,316.0,,'11111222,11111222,99999999' 
WAVCIS,ioos:station:WAVCIS:CSI16:1,2009-08-03T14:00:00Z,29.4012,-89.0355,10.0,1.72,310.0,,'11111222,11111222,99999999' 
WAVCIS,ioos:station:WAVCIS:CSI16:1,2009-08-03T15:00:00Z,29.4012,-89.0355,10.0,2.765,318.0,,'11111222,11111222,99999999' 
WAVCIS,ioos:station:WAVCIS:CSI16:1,2009-08-03T16:00:00Z,29.4012,-89.0355,10.0,2.523,323.0,,'11111222,11111222,99999999' 
WAVCIS,ioos:station:WAVCIS:CSI16:1,2009-08-03T17:00:00Z,29.4012,-89.0355,10.0,2.589,322.0,,'11111222,11111222,99999999' 
WAVCIS,ioos:station:WAVCIS:CSI16:1,2009-08-03T18:00:00Z,29.4012,-89.0355,10.0,1.939,358.0,,'11111222,11111222,99999999' 
WAVCIS,ioos:station:WAVCIS:CSI16:1,2009-08-03T19:00:00Z,29.4012,-89.0355,10.0,0.902,117.0,,'11111222,11111222,99999999' 
WAVCIS,ioos:station:WAVCIS:CSI16:1,2009-08-03T20:00:00Z,29.4012,-89.0355,10.0,1.037,135.0,,'11111222,11111222,99999999' 
WAVCIS,ioos:station:WAVCIS:CSI16:1,2009-08-03T21:00:00Z,29.4012,-89.0355,10.0,0.69,169.0,,'11111222,11111222,99999999' 
WAVCIS,ioos:station:WAVCIS:CSI16:1,2009-08-03T22:00:00Z,29.4012,-89.0355,10.0,1.088,187.0,,'11111222,11111222,99999999' 
WAVCIS,ioos:station:WAVCIS:CSI16:1,2009-08-03T23:00:00Z,29.4012,-89.0355,10.0,4.0,190.0,,'11111222,11111222,99999999' 
WAVCIS,ioos:station:WAVCIS:CSI16:1,2009-08-04T00:00:00Z,29.4012,-89.0355,10.0,4.223,217.0,,'11111222,11111222,99999999' 
WAVCIS,ioos:station:WAVCIS:CSI16:1,2009-08-04T01:00:00Z,29.4012,-89.0355,10.0,4.672,216.0,,'11111222,11111222,99999999' 
WAVCIS,ioos:station:WAVCIS:CSI16:1,2009-08-04T02:00:00Z,29.4012,-89.0355,10.0,3.722,213.0,,'11111222,11111222,99999999' 
WAVCIS,ioos:station:WAVCIS:CSI16:1,2009-08-04T03:00:00Z,29.4012,-89.0355,10.0,3.843,224.0,,'11111222,11111222,99999999' 
WAVCIS,ioos:station:WAVCIS:CSI16:1,2009-08-04T04:00:00Z,29.4012,-89.0355,10.0,3.909,221.0,,'11111222,11111222,99999999' 
WAVCIS,ioos:station:WAVCIS:CSI16:1,2009-08-04T05:00:00Z,29.4012,-89.0355,10.0,4.657,212.0,,'11111222,11111222,99999999' 
WAVCIS,ioos:station:WAVCIS:CSI16:1,2009-08-04T06:00:00Z,29.4012,-89.0355,10.0,4.906,209.0,,'11111222,11111222,99999999' 
WAVCIS,ioos:station:WAVCIS:CSI16:1,2009-08-04T07:00:00Z,29.4012,-89.0355,10.0,4.386,222.0,,'11111222,11111222,99999999' 
WAVCIS,ioos:station:WAVCIS:CSI16:1,2009-08-04T08:00:00Z,29.4012,-89.0355,10.0,4.452,223.0,,'11111222,11111222,99999999' 
WAVCIS,ioos:station:WAVCIS:CSI16:1,2009-08-04T09:00:00Z,29.4012,-89.0355,10.0,4.217,227.0,,'11111222,11111222,99999999' 
WAVCIS,ioos:station:WAVCIS:CSI16:1,2009-08-04T10:00:00Z,29.4012,-89.0355,10.0,3.246,233.0,,'11111222,11111222,99999999' 
WAVCIS,ioos:station:WAVCIS:CSI16:1,2009-08-04T11:00:00Z,29.4012,-89.0355,10.0,2.835,241.0,,'11111222,11111222,99999999' 
WAVCIS,ioos:station:WAVCIS:CSI16:1,2009-08-04T12:00:00Z,29.4012,-89.0355,10.0,2.815,237.0,,'11111222,11111222,99999999' 
WAVCIS,ioos:station:WAVCIS:CSI16:1,2009-08-04T13:00:00Z,29.4012,-89.0355,10.0,1.949,245.0,,'11111222,11111222,99999999' 
WAVCIS,ioos:station:WAVCIS:CSI16:1,2009-08-04T14:00:00Z,29.4012,-89.0355,10.0,1.438,276.0,,'11111222,11111222,99999999' 
WAVCIS,ioos:station:WAVCIS:CSI16:1,2009-08-04T15:00:00Z,29.4012,-89.0355,10.0,2.72,11.0,,'11111222,11111222,99999999' 
WAVCIS,ioos:station:WAVCIS:CSI16:1,2009-08-04T16:00:00Z,29.4012,-89.0355,10.0,3.179,344.0,,'11111222,11111222,99999999' 
WAVCIS,ioos:station:WAVCIS:CSI16:1,2009-08-04T17:00:00Z,29.4012,-89.0355,10.0,2.178,317.0,,'11111222,11111222,99999999' 
WAVCIS,ioos:station:WAVCIS:CSI16:1,2009-08-04T18:00:00Z,29.4012,-89.0355,10.0,0.887,304.0,,'11111222,11111222,99999999' 
WAVCIS,ioos:station:WAVCIS:CSI16:1,2009-08-04T19:00:00Z,29.4012,-89.0355,10.0,1.245,54.0,,'11111222,11111222,99999999' 
WAVCIS,ioos:station:WAVCIS:CSI16:1,2009-08-04T20:00:00Z,29.4012,-89.0355,10.0,0.688,137.0,,'11111222,11111222,99999999' 
WAVCIS,ioos:station:WAVCIS:CSI16:1,2009-08-04T21:00:00Z,29.4012,-89.0355,10.0,1.413,173.0,,'11111222,11111222,99999999' 
WAVCIS,ioos:station:WAVCIS:CSI16:1,2009-08-04T22:00:00Z,29.4012,-89.0355,10.0,2.055,181.0,,'11111222,11111222,99999999' 
WAVCIS,ioos:station:WAVCIS:CSI16:1,2009-08-04T23:00:00Z,29.4012,-89.0355,10.0,2.522,198.0,,'11111222,11111222,99999999' 
WAVCIS,ioos:station:WAVCIS:CSI16:1,2009-08-05T00:00:00Z,29.4012,-89.0355,10.0,2.586,201.0,,'11111222,11111222,99999999' 
WAVCIS,ioos:station:WAVCIS:CSI16:1,2009-08-05T01:00:00Z,29.4012,-89.0355,10.0,3.894,213.0,,'11111222,11111222,99999999' 
WAVCIS,ioos:station:WAVCIS:CSI16:1,2009-08-05T02:00:00Z,29.4012,-89.0355,10.0,4.213,226.0,,'11111222,11111222,99999999' 
WAVCIS,ioos:station:WAVCIS:CSI16:1,2009-08-05T03:00:00Z,29.4012,-89.0355,10.0,3.518,226.0,,'11111222,11111222,99999999' 
WAVCIS,ioos:station:WAVCIS:CSI16:1,2009-08-05T04:00:00Z,29.4012,-89.0355,10.0,4.291,229.0,,'11111222,11111222,99999999' 
WAVCIS,ioos:station:WAVCIS:CSI16:1,2009-08-05T05:00:00Z,29.4012,-89.0355,10.0,4.985,223.0,,'11111222,11111222,99999999' 
WAVCIS,ioos:station:WAVCIS:CSI16:1,2009-08-05T06:00:00Z,29.4012,-89.0355,10.0,4.182,230.0,,'11111222,11111222,99999999' 
WAVCIS,ioos:station:WAVCIS:CSI16:1,2009-08-05T07:00:00Z,29.4012,-89.0355,10.0,3.697,240.0,,'11111222,11111222,99999999' 
WAVCIS,ioos:station:WAVCIS:CSI16:1,2009-08-05T08:00:00Z,29.4012,-89.0355,10.0,4.389,250.0,,'11111222,11111222,99999999' 
WAVCIS,ioos:station:WAVCIS:CSI16:1,2009-08-05T09:00:00Z,29.4012,-89.0355,10.0,4.318,244.0,,'11111222,11111222,99999999' 
WAVCIS,ioos:station:WAVCIS:CSI16:1,2009-08-05T10:00:00Z,29.4012,-89.0355,10.0,4.337,251.0,,'11111222,11111222,99999999' 
WAVCIS,ioos:station:WAVCIS:CSI16:1,2009-08-05T11:00:00Z,29.4012,-89.0355,10.0,3.266,256.0,,'11111222,11111222,99999999' 
WAVCIS,ioos:station:WAVCIS:CSI16:1,2009-08-05T12:00:00Z,29.4012,-89.0355,10.0,2.943,294.0,,'11111222,11111222,99999999' 
WAVCIS,ioos:station:WAVCIS:CSI16:1,2009-08-05T13:00:00Z,29.4012,-89.0355,10.0,3.972,327.0,,'11111222,11111222,99999999' 
WAVCIS,ioos:station:WAVCIS:CSI16:1,2009-08-05T14:00:00Z,29.4012,-89.0355,10.0,4.429,321.0,,'11111222,11111222,99999999' 
WAVCIS,ioos:station:WAVCIS:CSI16:1,2009-08-05T15:00:00Z,29.4012,-89.0355,10.0,6.342,348.0,,'11111222,11111222,99999999' 
WAVCIS,ioos:station:WAVCIS:CSI16:1,2009-08-05T16:00:00Z,29.4012,-89.0355,10.0,4.396,358.0,,'11111222,11111222,99999999' 
WAVCIS,ioos:station:WAVCIS:CSI16:1,2009-08-05T17:00:00Z,29.4012,-89.0355,10.0,2.219,343.0,,'11111222,11111222,99999999' 
WAVCIS,ioos:station:WAVCIS:CSI16:1,2009-08-05T18:00:00Z,29.4012,-89.0355,10.0,3.344,8.0,,'11111222,11111222,99999999' 
WAVCIS,ioos:station:WAVCIS:CSI16:1,2009-08-05T19:00:00Z,29.4012,-89.0355,10.0,1.396,48.0,,'11111222,11111222,99999999' 
WAVCIS,ioos:station:WAVCIS:CSI16:1,2009-08-05T20:00:00Z,29.4012,-89.0355,10.0,1.016,297.0,,'11111222,11111222,99999999' 
WAVCIS,ioos:station:WAVCIS:CSI16:1,2009-08-05T21:00:00Z,29.4012,-89.0355,10.0,1.988,227.0,,'11111222,11111222,99999999' 
WAVCIS,ioos:station:WAVCIS:CSI16:1,2009-08-05T22:00:00Z,29.4012,-89.0355,10.0,2.162,210.0,,'11111222,11111222,99999999' 
WAVCIS,ioos:station:WAVCIS:CSI16:1,2009-08-05T23:00:00Z,29.4012,-89.0355,10.0,1.263,199.0,,'11111222,11111222,99999999' 
WAVCIS,ioos:station:WAVCIS:CSI16:1,2009-08-06T00:00:00Z,29.4012,-89.0355,10.0,1.937,206.0,,'11111222,11111222,99999999' 
WAVCIS,ioos:station:WAVCIS:CSI16:1,2009-08-06T01:00:00Z,29.4012,-89.0355,10.0,4.866,237.0,,'11111222,11111222,99999999' 
WAVCIS,ioos:station:WAVCIS:CSI16:1,2009-08-06T02:00:00Z,29.4012,-89.0355,10.0,5.134,228.0,,'11111222,11111222,99999999' 
WAVCIS,ioos:station:WAVCIS:CSI16:1,2009-08-06T03:00:00Z,29.4012,-89.0355,10.0,5.906,36.0,,'11111222,11111222,99999999' 
WAVCIS,ioos:station:WAVCIS:CSI16:1,2009-08-06T04:00:00Z,29.4012,-89.0355,10.0,2.075,204.0,,'11111222,11111222,99999999' 
WAVCIS,ioos:station:WAVCIS:CSI16:1,2009-08-06T05:00:00Z,29.4012,-89.0355,10.0,9.87,109.0,,'11111222,11111222,99999999' 
WAVCIS,ioos:station:WAVCIS:CSI16:1,2009-08-06T06:00:00Z,29.4012,-89.0355,10.0,5.953,170.0,,'11111222,11111222,99999999' 
WAVCIS,ioos:station:WAVCIS:CSI16:1,2009-08-06T07:00:00Z,29.4012,-89.0355,10.0,5.804,173.0,,'11111222,11111222,99999999' 
WAVCIS,ioos:station:WAVCIS:CSI16:1,2009-08-06T08:00:00Z,29.4012,-89.0355,10.0,6.742,210.0,,'11111222,11111222,99999999' 
WAVCIS,ioos:station:WAVCIS:CSI16:1,2009-08-06T09:00:00Z,29.4012,-89.0355,10.0,5.04,231.0,,'11111222,11111222,99999999' 
WAVCIS,ioos:station:WAVCIS:CSI16:1,2009-08-06T10:00:00Z,29.4012,-89.0355,10.0,5.735,247.0,,'11111222,11111222,99999999' 
WAVCIS,ioos:station:WAVCIS:CSI16:1,2009-08-06T11:00:00Z,29.4012,-89.0355,10.0,5.281,264.0,,'11111222,11111222,99999999' 
WAVCIS,ioos:station:WAVCIS:CSI16:1,2009-08-06T12:00:00Z,29.4012,-89.0355,10.0,5.481,276.0,,'11111222,11111222,99999999' 
WAVCIS,ioos:station:WAVCIS:CSI16:1,2009-08-06T13:00:00Z,29.4012,-89.0355,10.0,5.228,272.0,,'11111222,11111222,99999999' 
WAVCIS,ioos:station:WAVCIS:CSI16:1,2009-08-06T14:00:00Z,29.4012,-89.0355,10.0,5.909,278.0,,'11111222,11111222,99999999' 
WAVCIS,ioos:station:WAVCIS:CSI16:1,2009-08-06T15:00:00Z,29.4012,-89.0355,10.0,4.288,285.0,,'11111222,11111222,99999999' 
WAVCIS,ioos:station:WAVCIS:CSI16:1,2009-08-06T16:00:00Z,29.4012,-89.0355,10.0,3.78,315.0,,'11111222,11111222,99999999' 
WAVCIS,ioos:station:WAVCIS:CSI16:1,2009-08-06T17:00:00Z,29.4012,-89.0355,10.0,4.886,326.0,,'11111222,11111222,99999999' 
WAVCIS,ioos:station:WAVCIS:CSI16:1,2009-08-06T18:00:00Z,29.4012,-89.0355,10.0,4.649,343.0,,'11111222,11111222,99999999' 
WAVCIS,ioos:station:WAVCIS:CSI16:1,2009-08-06T19:00:00Z,29.4012,-89.0355,10.0,5.553,2.0,,'11111222,11111222,99999999' 
WAVCIS,ioos:station:WAVCIS:CSI16:1,2009-08-06T20:00:00Z,29.4012,-89.0355,10.0,1.919,38.0,,'11111222,11111222,99999999' 
WAVCIS,ioos:station:WAVCIS:CSI16:1,2009-08-06T21:00:00Z,29.4012,-89.0355,10.0,1.793,96.0,,'11111222,11111222,99999999' 
WAVCIS,ioos:station:WAVCIS:CSI16:1,2009-08-06T22:00:00Z,29.4012,-89.0355,10.0,2.371,121.0,,'11111222,11111222,99999999' 
WAVCIS,ioos:station:WAVCIS:CSI16:1,2009-08-06T23:00:00Z,29.4012,-89.0355,10.0,2.717,151.0,,'11111222,11111222,99999999' 
WAVCIS,ioos:station:WAVCIS:CSI16:1,2009-08-07T00:00:00Z,29.4012,-89.0355,10.0,2.439,163.0,,'11111222,11111222,99999999' 
WAVCIS,ioos:station:WAVCIS:CSI16:1,2009-08-07T01:00:00Z,29.4012,-89.0355,10.0,2.667,177.0,,'11111222,11111222,99999999' 
WAVCIS,ioos:station:WAVCIS:CSI16:1,2009-08-07T02:00:00Z,29.4012,-89.0355,10.0,2.256,155.0,,'11111222,11111222,99999999' 
WAVCIS,ioos:station:WAVCIS:CSI16:1,2009-08-07T03:00:00Z,29.4012,-89.0355,10.0,3.303,180.0,,'11111222,11111222,99999999' 
WAVCIS,ioos:station:WAVCIS:CSI16:1,2009-08-07T04:00:00Z,29.4012,-89.0355,10.0,3.406,153.0,,'11111222,11111222,99999999' 
WAVCIS,ioos:station:WAVCIS:CSI16:1,2009-08-07T05:00:00Z,29.4012,-89.0355,10.0,3.064,193.0,,'11111222,11111222,99999999' 
WAVCIS,ioos:station:WAVCIS:CSI16:1,2009-08-07T06:00:00Z,29.4012,-89.0355,10.0,3.136,204.0,,'11111222,11111222,99999999' 
WAVCIS,ioos:station:WAVCIS:CSI16:1,2009-08-07T07:00:00Z,29.4012,-89.0355,10.0,2.236,197.0,,'11111222,11111222,99999999' 
WAVCIS,ioos:station:WAVCIS:CSI16:1,2009-08-07T08:00:00Z,29.4012,-89.0355,10.0,3.705,255.0,,'11111222,11111222,99999999' 
WAVCIS,ioos:station:WAVCIS:CSI16:1,2009-08-07T09:00:00Z,29.4012,-89.0355,10.0,3.239,262.0,,'11111222,11111222,99999999' 
WAVCIS,ioos:station:WAVCIS:CSI16:1,2009-08-07T10:00:00Z,29.4012,-89.0355,10.0,3.575,281.0,,'11111222,11111222,99999999' 
WAVCIS,ioos:station:WAVCIS:CSI16:1,2009-08-07T11:00:00Z,29.4012,-89.0355,10.0,2.455,284.0,,'11111222,11111222,99999999' 
WAVCIS,ioos:station:WAVCIS:CSI16:1,2009-08-07T12:00:00Z,29.4012,-89.0355,10.0,2.44,315.0,,'11111222,11111222,99999999' 
WAVCIS,ioos:station:WAVCIS:CSI16:1,2009-08-07T13:00:00Z,29.4012,-89.0355,10.0,3.188,329.0,,'11111222,11111222,99999999' 
WAVCIS,ioos:station:WAVCIS:CSI16:1,2009-08-07T14:00:00Z,29.4012,-89.0355,10.0,4.202,345.0,,'11111222,11111222,99999999' 
WAVCIS,ioos:station:WAVCIS:CSI16:1,2009-08-07T15:00:00Z,29.4012,-89.0355,10.0,0.797,28.0,,'11111222,11111222,99999999' 
WAVCIS,ioos:station:WAVCIS:CSI16:1,2009-08-07T16:00:00Z,29.4012,-89.0355,10.0,2.549,36.0,,'11111222,11111222,99999999' 
WAVCIS,ioos:station:WAVCIS:CSI16:1,2009-08-07T17:00:00Z,29.4012,-89.0355,10.0,4.06,20.0,,'11111222,11111222,99999999' 
WAVCIS,ioos:station:WAVCIS:CSI16:1,2009-08-07T18:00:00Z,29.4012,-89.0355,10.0,3.228,29.0,,'11111222,11111222,99999999' 
WAVCIS,ioos:station:WAVCIS:CSI16:1,2009-08-07T19:00:00Z,29.4012,-89.0355,10.0,4.362,68.0,,'11111222,11111222,99999999' 
WAVCIS,ioos:station:WAVCIS:CSI16:1,2009-08-07T20:00:00Z,29.4012,-89.0355,10.0,3.929,69.0,,'11111222,11111222,99999999' 
WAVCIS,ioos:station:WAVCIS:CSI16:1,2009-08-07T21:00:00Z,29.4012,-89.0355,10.0,3.342,76.0,,'11111222,11111222,99999999' 
WAVCIS,ioos:station:WAVCIS:CSI16:1,2009-08-07T22:00:00Z,29.4012,-89.0355,10.0,4.024,63.0,,'11111222,11111222,99999999' 
WAVCIS,ioos:station:WAVCIS:CSI16:1,2009-08-07T23:00:00Z,29.4012,-89.0355,10.0,5.027,105.0,,'11111222,11111222,99999999' 
WAVCIS,ioos:station:WAVCIS:CSI16:1,2009-08-08T00:00:00Z,29.4012,-89.0355,10.0,5.494,126.0,,'11111222,11111222,99999999' 
WAVCIS,ioos:station:WAVCIS:CSI16:1,2009-08-08T01:00:00Z,29.4012,-89.0355,10.0,6.056,118.0,,'11111222,11111222,99999999' 
WAVCIS,ioos:station:WAVCIS:CSI16:1,2009-08-08T02:00:00Z,29.4012,-89.0355,10.0,7.31,119.0,,'11111222,11111222,99999999' 
WAVCIS,ioos:station:WAVCIS:CSI16:1,2009-08-08T03:00:00Z,29.4012,-89.0355,10.0,7.02,126.0,,'11111222,11111222,99999999' 
WAVCIS,ioos:station:WAVCIS:CSI16:1,2009-08-08T04:00:00Z,29.4012,-89.0355,10.0,6.344,125.0,,'11111222,11111222,99999999' 
WAVCIS,ioos:station:WAVCIS:CSI16:1,2009-08-08T05:00:00Z,29.4012,-89.0355,10.0,6.827,132.0,,'11111222,11111222,99999999' 
WAVCIS,ioos:station:WAVCIS:CSI16:1,2009-08-08T06:00:00Z,29.4012,-89.0355,10.0,6.877,132.0,,'11111222,11111222,99999999' 
WAVCIS,ioos:station:WAVCIS:CSI16:1,2009-08-08T07:00:00Z,29.4012,-89.0355,10.0,9.07,120.0,,'11111222,11111222,99999999' 
WAVCIS,ioos:station:WAVCIS:CSI16:1,2009-08-08T08:00:00Z,29.4012,-89.0355,10.0,8.87,144.0,,'11111222,11111222,99999999' 
WAVCIS,ioos:station:WAVCIS:CSI16:1,2009-08-08T09:00:00Z,29.4012,-89.0355,10.0,7.44,106.0,,'11111222,11111222,99999999' 
WAVCIS,ioos:station:WAVCIS:CSI16:1,2009-08-08T10:00:00Z,29.4012,-89.0355,10.0,7.95,147.0,,'11111222,11111222,99999999' 
WAVCIS,ioos:station:WAVCIS:CSI16:1,2009-08-08T11:00:00Z,29.4012,-89.0355,10.0,5.893,146.0,,'11111222,11111222,99999999' 
WAVCIS,ioos:station:WAVCIS:CSI16:1,2009-08-08T12:00:00Z,29.4012,-89.0355,10.0,4.65,126.0,,'11111222,11111222,99999999' 
WAVCIS,ioos:station:WAVCIS:CSI16:1,2009-08-08T13:00:00Z,29.4012,-89.0355,10.0,5.554,132.0,,'11111222,11111222,99999999' 
WAVCIS,ioos:station:WAVCIS:CSI16:1,2009-08-08T14:00:00Z,29.4012,-89.0355,10.0,5.652,142.0,,'11111222,11111222,99999999' 
WAVCIS,ioos:station:WAVCIS:CSI16:1,2009-08-08T15:00:00Z,29.4012,-89.0355,10.0,7.24,130.0,,'11111222,11111222,99999999' 
WAVCIS,ioos:station:WAVCIS:CSI16:1,2009-08-08T16:00:00Z,29.4012,-89.0355,10.0,3.823,112.0,,'11111222,11111222,99999999' 
WAVCIS,ioos:station:WAVCIS:CSI16:1,2009-08-08T17:00:00Z,29.4012,-89.0355,10.0,4.2,169.0,,'11111222,11111222,99999999' 
WAVCIS,ioos:station:WAVCIS:CSI16:1,2009-08-08T18:00:00Z,29.4012,-89.0355,10.0,4.498,149.0,,'11111222,11111222,99999999' 
WAVCIS,ioos:station:WAVCIS:CSI16:1,2009-08-08T19:00:00Z,29.4012,-89.0355,10.0,3.822,141.0,,'11111222,11111222,99999999' 
WAVCIS,ioos:station:WAVCIS:CSI16:1,2009-08-08T20:00:00Z,29.4012,-89.0355,10.0,2.764,41.0,,'11111222,11111222,99999999' 
WAVCIS,ioos:station:WAVCIS:CSI16:1,2009-08-08T21:00:00Z,29.4012,-89.0355,10.0,2.371,21.0,,'11111222,11111222,99999999' 
WAVCIS,ioos:station:WAVCIS:CSI16:1,2009-08-08T22:00:00Z,29.4012,-89.0355,10.0,2.981,31.0,,'11111222,11111222,99999999' 
WAVCIS,ioos:station:WAVCIS:CSI16:1,2009-08-08T23:00:00Z,29.4012,-89.0355,10.0,4.74,97.0,,'11111222,11111222,99999999' 
WAVCIS,ioos:station:WAVCIS:CSI16:1,2009-08-09T00:00:00Z,29.4012,-89.0355,10.0,4.787,106.0,,'11111222,11111222,99999999' 
WAVCIS,ioos:station:WAVCIS:CSI16:1,2009-08-09T01:00:00Z,29.4012,-89.0355,10.0,6.076,124.0,,'11111222,11111222,99999999' 
WAVCIS,ioos:station:WAVCIS:CSI16:1,2009-08-09T02:00:00Z,29.4012,-89.0355,10.0,4.955,134.0,,'11111222,11111222,99999999' 
WAVCIS,ioos:station:WAVCIS:CSI16:1,2009-08-09T03:00:00Z,29.4012,-89.0355,10.0,6.451,147.0,,'11111222,11111222,99999999' 
WAVCIS,ioos:station:WAVCIS:CSI16:1,2009-08-09T04:00:00Z,29.4012,-89.0355,10.0,6.533,149.0,,'11111222,11111222,99999999' 
WAVCIS,ioos:station:WAVCIS:CSI16:1,2009-08-09T05:00:00Z,29.4012,-89.0355,10.0,6.443,162.0,,'11111222,11111222,99999999' 
WAVCIS,ioos:station:WAVCIS:CSI16:1,2009-08-09T06:00:00Z,29.4012,-89.0355,10.0,6.578,164.0,,'11111222,11111222,99999999' 
WAVCIS,ioos:station:WAVCIS:CSI16:1,2009-08-09T07:00:00Z,29.4012,-89.0355,10.0,7.28,177.0,,'11111222,11111222,99999999' 
WAVCIS,ioos:station:WAVCIS:CSI16:1,2009-08-09T08:00:00Z,29.4012,-89.0355,10.0,6.378,180.0,,'11111222,11111222,99999999' 
WAVCIS,ioos:station:WAVCIS:CSI16:1,2009-08-09T09:00:00Z,29.4012,-89.0355,10.0,6.11,195.0,,'11111222,11111222,99999999' 
WAVCIS,ioos:station:WAVCIS:CSI16:1,2009-08-09T10:00:00Z,29.4012,-89.0355,10.0,5.768,179.0,,'11111222,11111222,99999999' 
WAVCIS,ioos:station:WAVCIS:CSI16:1,2009-08-09T11:00:00Z,29.4012,-89.0355,10.0,5.148,178.0,,'11111222,11111222,99999999' 
WAVCIS,ioos:station:WAVCIS:CSI16:1,2009-08-09T12:00:00Z,29.4012,-89.0355,10.0,3.753,202.0,,'11111222,11111222,99999999' 
WAVCIS,ioos:station:WAVCIS:CSI16:1,2009-08-09T13:00:00Z,29.4012,-89.0355,10.0,2.129,199.0,,'11111222,11111222,99999999' 
WAVCIS,ioos:station:WAVCIS:CSI16:1,2009-08-09T14:00:00Z,29.4012,-89.0355,10.0,2.523,196.0,,'11111222,11111222,99999999' 
WAVCIS,ioos:station:WAVCIS:CSI16:1,2009-08-09T15:00:00Z,29.4012,-89.0355,10.0,1.677,169.0,,'11111222,11111222,99999999' 
WAVCIS,ioos:station:WAVCIS:CSI16:1,2009-08-09T16:00:00Z,29.4012,-89.0355,10.0,4.029,170.0,,'11111222,11111222,99999999' 
WAVCIS,ioos:station:WAVCIS:CSI16:1,2009-08-09T17:00:00Z,29.4012,-89.0355,10.0,4.095,153.0,,'11111222,11111222,99999999' 
WAVCIS,ioos:station:WAVCIS:CSI16:1,2009-08-09T18:00:00Z,29.4012,-89.0355,10.0,3.114,156.0,,'11111222,11111222,99999999' 
WAVCIS,ioos:station:WAVCIS:CSI16:1,2009-08-09T19:00:00Z,29.4012,-89.0355,10.0,3.76,160.0,,'11111222,11111222,99999999' 
WAVCIS,ioos:station:WAVCIS:CSI16:1,2009-08-09T20:00:00Z,29.4012,-89.0355,10.0,4.175,163.0,,'11111222,11111222,99999999' 
WAVCIS,ioos:station:WAVCIS:CSI16:1,2009-08-09T21:00:00Z,29.4012,-89.0355,10.0,4.357,161.0,,'11111222,11111222,99999999' 
WAVCIS,ioos:station:WAVCIS:CSI16:1,2009-08-09T22:00:00Z,29.4012,-89.0355,10.0,3.913,168.0,,'11111222,11111222,99999999' 
WAVCIS,ioos:station:WAVCIS:CSI16:1,2009-08-09T23:00:00Z,29.4012,-89.0355,10.0,2.716,159.0,,'11111222,11111222,99999999' 
WAVCIS,ioos:station:WAVCIS:CSI16:1,2009-08-10T00:00:00Z,29.4012,-89.0355,10.0,1.883,162.0,,'11111222,11111222,99999999' 
WAVCIS,ioos:station:WAVCIS:CSI16:1,2009-08-10T01:00:00Z,29.4012,-89.0355,10.0,5.494,137.0,,'11111222,11111222,99999999' 
WAVCIS,ioos:station:WAVCIS:CSI16:1,2009-08-10T02:00:00Z,29.4012,-89.0355,10.0,2.801,93.0,,'11111222,11111222,99999999' 
WAVCIS,ioos:station:WAVCIS:CSI16:1,2009-08-10T03:00:00Z,29.4012,-89.0355,10.0,3.416,113.0,,'11111222,11111222,99999999' 
WAVCIS,ioos:station:WAVCIS:CSI16:1,2009-08-10T04:00:00Z,29.4012,-89.0355,10.0,4.324,133.0,,'11111222,11111222,99999999' 
WAVCIS,ioos:station:WAVCIS:CSI16:1,2009-08-10T05:00:00Z,29.4012,-89.0355,10.0,4.75,149.0,,'11111222,11111222,99999999' 
WAVCIS,ioos:station:WAVCIS:CSI16:1,2009-08-10T06:00:00Z,29.4012,-89.0355,10.0,4.89,148.0,,'11111222,11111222,99999999' 
WAVCIS,ioos:station:WAVCIS:CSI16:1,2009-08-10T07:00:00Z,29.4012,-89.0355,10.0,4.124,162.0,,'11111222,11111222,99999999' 
WAVCIS,ioos:station:WAVCIS:CSI16:1,2009-08-10T08:00:00Z,29.4012,-89.0355,10.0,4.558,133.0,,'11111222,11111222,99999999' 